TAP478 EKCH-EHAM

Flight info

Callsign TAP478
Flight time N/A
Altitude 38000
Route LANGO M611 ALASA DCT WANZA N872 KUBAT T200 BLUFA
Aircraft A359/H-SDE2E3GHIJ3J4J5LM1ORWXY/LB1D1

Departure

Time 2026-04-23 18:30
Airport Copenhagen Kastrup Airport (EKCH)

Arrival

Time N/A
Airport Amsterdam Airport Schiphol (EHAM)
Time Latitude Longitude Altitude Speed Heading
2026-04-23 18:06 55.62425 12.65062 27 ft 0 kts 269°
2026-04-23 18:18 55.62426 12.65082 27 ft 2 kts 257°
2026-04-23 18:18 55.62430 12.65111 27 ft 2 kts 245°
2026-04-23 18:19 55.62439 12.65136 24 ft 2 kts 227°
2026-04-23 18:19 55.62451 12.65155 25 ft 2 kts 212°
2026-04-23 18:19 55.62466 12.65168 24 ft 2 kts 200°
2026-04-23 18:19 55.62482 12.65176 32 ft 2 kts 191°
2026-04-23 18:20 55.62498 12.65180 32 ft 2 kts 184°
2026-04-23 18:20 55.62512 12.65182 31 ft 1 kts 179°
2026-04-23 18:20 55.62516 12.65182 31 ft 0 kts 178°
2026-04-23 18:22 55.62502 12.65183 31 ft 5 kts 176°
2026-04-23 18:22 55.62455 12.65186 28 ft 9 kts 179°
2026-04-23 18:22 55.62394 12.65188 27 ft 9 kts 175°
2026-04-23 18:23 55.62348 12.65193 27 ft 11 kts 178°
2026-04-23 18:23 55.62172 12.65133 30 ft 14 kts 213°
2026-04-23 18:24 55.61949 12.64879 29 ft 24 kts 213°
2026-04-23 18:24 55.61800 12.64710 26 ft 25 kts 213°
2026-04-23 18:24 55.61655 12.64542 29 ft 26 kts 214°
2026-04-23 18:25 55.61319 12.64157 30 ft 32 kts 213°
2026-04-23 18:25 55.61138 12.63949 29 ft 29 kts 212°
2026-04-23 18:25 55.60981 12.63767 28 ft 22 kts 213°
2026-04-23 18:25 55.60841 12.63605 27 ft 26 kts 213°
2026-04-23 18:26 55.60683 12.63425 26 ft 28 kts 216°
2026-04-23 18:26 55.60536 12.63212 30 ft 24 kts 220°
2026-04-23 18:26 55.60441 12.63113 29 ft 13 kts 177°
2026-04-23 18:26 55.60391 12.63175 29 ft 0 kts 132°
2026-04-23 18:28 55.60365 12.63233 30 ft 10 kts 129°
2026-04-23 18:29 55.60340 12.63322 32 ft 4 kts 81°
2026-04-23 18:29 55.60358 12.63371 31 ft 7 kts 48°
2026-04-23 18:29 55.60457 12.63533 28 ft 45 kts 42°
2026-04-23 18:29 55.60891 12.64205 28 ft 119 kts 41°
2026-04-23 18:30 55.61668 12.65405 179 ft 167 kts 40°
2026-04-23 18:30 55.62555 12.66774 932 ft 168 kts 39°
2026-04-23 18:30 55.63419 12.68157 1795 ft 174 kts 37°
2026-04-23 18:30 55.64392 12.69707 2202 ft 202 kts 37°
2026-04-23 18:31 55.65537 12.71461 2628 ft 232 kts 35°
2026-04-23 18:31 55.66824 12.73343 3337 ft 246 kts 35°
2026-04-23 18:31 55.68158 12.75300 4232 ft 251 kts 35°
2026-04-23 18:31 55.69510 12.77304 5153 ft 255 kts 36°
2026-04-23 18:32 55.70868 12.79362 6128 ft 259 kts 38°
2026-04-23 18:32 55.72015 12.81887 7088 ft 268 kts 56°
2026-04-23 18:32 55.72556 12.85119 8058 ft 283 kts 81°
2026-04-23 18:32 55.72268 12.88641 9004 ft 300 kts 107°
2026-04-23 18:33 55.71069 12.91760 9920 ft 316 kts 136°
2026-04-23 18:33 55.69115 12.93685 10585 ft 334 kts 164°
2026-04-23 18:33 55.66744 12.93956 10946 ft 353 kts 192°
2026-04-23 18:33 55.64313 12.92859 11411 ft 368 kts 202°
2026-04-23 18:34 55.62045 12.90764 12128 ft 368 kts 223°
2026-04-23 18:34 55.60322 12.87467 12961 ft 364 kts 239°
2026-04-23 18:34 55.59006 12.83647 13774 ft 365 kts 248°
2026-04-23 18:34 55.57913 12.79573 14519 ft 368 kts 252°
2026-04-23 18:35 55.56915 12.75363 15276 ft 372 kts 253°
2026-04-23 18:35 55.55932 12.71100 16049 ft 377 kts 253°
2026-04-23 18:35 55.54932 12.66855 16804 ft 382 kts 252°
2026-04-23 18:35 55.53874 12.62518 17575 ft 387 kts 251°
2026-04-23 18:36 55.52776 12.58155 18336 ft 392 kts 251°
2026-04-23 18:36 55.51641 12.53736 18848 ft 395 kts 250°
2026-04-23 18:36 55.50494 12.49326 19063 ft 396 kts 250°
2026-04-23 18:36 55.49344 12.44911 19115 ft 397 kts 250°
2026-04-23 18:37 55.48180 12.40470 19114 ft 398 kts 250°
2026-04-23 18:37 55.47014 12.36036 19108 ft 399 kts 250°
2026-04-23 18:37 55.45847 12.31600 19109 ft 399 kts 250°
2026-04-23 18:37 55.44680 12.27166 19110 ft 399 kts 250°
2026-04-23 18:38 55.43512 12.22729 19115 ft 399 kts 250°
2026-04-23 18:38 55.42343 12.18287 19441 ft 402 kts 249°
2026-04-23 18:38 55.41160 12.13801 20187 ft 404 kts 249°
2026-04-23 18:38 55.39976 12.09314 20986 ft 406 kts 250°
2026-04-23 18:39 55.38788 12.04787 21735 ft 409 kts 250°
2026-04-23 18:39 55.37584 12.00219 22454 ft 414 kts 249°
2026-04-23 18:39 55.36359 11.95615 23186 ft 418 kts 249°
2026-04-23 18:39 55.35116 11.90970 23872 ft 422 kts 249°
2026-04-23 18:40 55.33856 11.86269 24475 ft 426 kts 249°
2026-04-23 18:40 55.32591 11.81558 25082 ft 429 kts 249°
2026-04-23 18:40 55.31315 11.76809 25695 ft 432 kts 249°
2026-04-23 18:40 55.30025 11.72010 26309 ft 435 kts 249°
2026-04-23 18:41 55.28729 11.67199 26918 ft 439 kts 249°
2026-04-23 18:41 55.27259 11.62459 27495 ft 446 kts 241°
2026-04-23 18:41 55.25508 11.57929 28092 ft 451 kts 239°
2026-04-23 18:41 55.23676 11.53441 28675 ft 454 kts 238°
2026-04-23 18:42 55.21814 11.48933 29235 ft 458 kts 238°
2026-04-23 18:42 55.19937 11.44410 29785 ft 461 kts 238°
2026-04-23 18:42 55.18037 11.39847 30316 ft 464 kts 238°
2026-04-23 18:42 55.16123 11.35258 30736 ft 468 kts 237°
2026-04-23 18:43 55.14192 11.30643 31195 ft 471 kts 237°
2026-04-23 18:43 55.12251 11.26009 31602 ft 474 kts 237°
2026-04-23 18:43 55.10291 11.21342 32016 ft 477 kts 237°
2026-04-23 18:43 55.08324 11.16661 32416 ft 480 kts 237°
2026-04-23 18:44 55.06339 11.11944 32813 ft 483 kts 237°
2026-04-23 18:44 55.04341 11.07215 33191 ft 486 kts 237°
2026-04-23 18:44 55.02327 11.02459 33568 ft 488 kts 237°
2026-04-23 18:44 55.00305 10.97690 33929 ft 491 kts 237°
2026-04-23 18:45 54.98272 10.92899 34262 ft 493 kts 237°
2026-04-23 18:45 54.96226 10.88089 34586 ft 494 kts 236°
2026-04-23 18:45 54.94181 10.83300 35057 ft 492 kts 236°
2026-04-23 18:45 54.92147 10.78538 35535 ft 489 kts 236°
2026-04-23 18:46 54.90115 10.73790 35977 ft 488 kts 236°
2026-04-23 18:46 54.88092 10.69069 36391 ft 486 kts 236°
2026-04-23 18:46 54.86070 10.64366 36780 ft 485 kts 236°
2026-04-23 18:46 54.84039 10.59645 37199 ft 484 kts 236°
2026-04-23 18:47 54.82038 10.55011 37587 ft 483 kts 236°
2026-04-23 18:47 54.80002 10.50301 37990 ft 481 kts 236°
2026-04-23 18:47 54.78022 10.45714 38180 ft 482 kts 236°
2026-04-23 18:48 54.74015 10.36460 38195 ft 480 kts 235°
2026-04-23 18:48 54.69990 10.27253 38198 ft 480 kts 235°
2026-04-23 18:49 54.65957 10.18049 38207 ft 480 kts 235°
2026-04-23 18:49 54.61927 10.08874 38210 ft 479 kts 235°
2026-04-23 18:50 54.58577 10.01271 38211 ft 479 kts 235°
2026-04-23 18:50 54.53853 9.90589 38215 ft 479 kts 235°
2026-04-23 18:51 54.49813 9.81488 38233 ft 478 kts 234°
2026-04-23 18:51 54.45769 9.72415 38236 ft 478 kts 234°
2026-04-23 18:52 54.41743 9.63408 38237 ft 478 kts 234°
2026-04-23 18:52 54.37689 9.54380 38240 ft 477 kts 234°
2026-04-23 18:53 54.33632 9.45366 38240 ft 477 kts 234°
2026-04-23 18:53 54.29567 9.36377 38237 ft 477 kts 234°
2026-04-23 18:54 54.25502 9.27416 38240 ft 477 kts 234°
2026-04-23 18:54 54.21434 9.18475 38244 ft 476 kts 233°
2026-04-23 18:55 54.17354 9.09553 38267 ft 476 kts 233°
2026-04-23 18:55 54.13275 9.00666 38259 ft 476 kts 233°
2026-04-23 18:56 54.09885 8.93290 38263 ft 475 kts 233°
2026-04-23 18:56 54.05105 8.82940 38284 ft 475 kts 233°
2026-04-23 18:57 54.01016 8.74113 38273 ft 475 kts 233°
2026-04-23 18:57 53.96915 8.65299 38276 ft 475 kts 233°
2026-04-23 18:58 53.92811 8.56512 38298 ft 475 kts 232°
2026-04-23 18:58 53.89393 8.49214 38282 ft 475 kts 232°
2026-04-23 18:59 53.85277 8.40456 38282 ft 475 kts 232°
2026-04-23 18:59 53.81152 8.31711 38305 ft 475 kts 232°
2026-04-23 19:00 53.77026 8.22989 38308 ft 475 kts 232°
2026-04-23 19:00 53.72911 8.14324 37821 ft 469 kts 232°
2026-04-23 19:00 53.70863 8.10022 37073 ft 469 kts 232°
2026-04-23 19:01 53.68821 8.05708 36287 ft 471 kts 232°
2026-04-23 19:01 53.66772 8.01380 35594 ft 472 kts 232°
2026-04-23 19:01 53.64711 7.97043 35087 ft 476 kts 231°
2026-04-23 19:01 53.62613 7.92680 34683 ft 480 kts 231°
2026-04-23 19:02 53.60500 7.88314 34331 ft 482 kts 231°
2026-04-23 19:02 53.58382 7.83936 33929 ft 483 kts 231°
2026-04-23 19:02 53.56259 7.79542 33545 ft 484 kts 231°
2026-04-23 19:02 53.54134 7.75149 33208 ft 485 kts 231°
2026-04-23 19:03 53.51999 7.70739 32862 ft 487 kts 230°
2026-04-23 19:03 53.49858 7.66320 32525 ft 488 kts 230°
2026-04-23 19:03 53.47714 7.61905 32182 ft 489 kts 230°
2026-04-23 19:03 53.45576 7.57508 31862 ft 489 kts 230°
2026-04-23 19:04 53.43410 7.53061 31528 ft 488 kts 230°
2026-04-23 19:04 53.41264 7.48664 31216 ft 486 kts 230°
2026-04-23 19:04 53.39126 7.44290 30868 ft 484 kts 230°
2026-04-23 19:04 53.36993 7.39933 30514 ft 482 kts 230°
2026-04-23 19:05 53.34868 7.35600 30117 ft 480 kts 230°
2026-04-23 19:05 53.32749 7.31289 29698 ft 478 kts 230°
2026-04-23 19:05 53.30644 7.27012 29279 ft 475 kts 230°
2026-04-23 19:05 53.28552 7.22772 28873 ft 472 kts 230°
2026-04-23 19:06 53.26471 7.18558 28473 ft 469 kts 230°
2026-04-23 19:06 53.24382 7.14334 28064 ft 466 kts 230°
2026-04-23 19:06 53.22341 7.10218 27678 ft 463 kts 230°
2026-04-23 19:06 53.20284 7.06073 27298 ft 460 kts 230°
2026-04-23 19:07 53.18248 7.01977 26926 ft 458 kts 230°
2026-04-23 19:07 53.16242 6.97950 26561 ft 455 kts 230°
2026-04-23 19:07 53.14224 6.93904 26395 ft 454 kts 230°
2026-04-23 19:07 53.12207 6.89865 26245 ft 452 kts 230°
2026-04-23 19:08 53.10198 6.85850 25576 ft 451 kts 230°
2026-04-23 19:08 53.08201 6.81866 25021 ft 446 kts 230°
2026-04-23 19:08 53.06224 6.77930 24452 ft 441 kts 230°
2026-04-23 19:08 53.04235 6.73973 23857 ft 438 kts 230°
2026-04-23 19:09 53.02288 6.70107 23132 ft 435 kts 230°
2026-04-23 19:09 53.00347 6.66259 22422 ft 433 kts 230°
2026-04-23 19:09 52.98419 6.62442 21731 ft 430 kts 230°
2026-04-23 19:09 52.96502 6.58653 21052 ft 427 kts 230°
2026-04-23 19:10 52.94602 6.54898 20396 ft 424 kts 230°
2026-04-23 19:10 52.92701 6.51154 19744 ft 421 kts 230°
2026-04-23 19:10 52.90842 6.47497 19136 ft 419 kts 230°
2026-04-23 19:10 52.88970 6.43819 18482 ft 416 kts 230°
2026-04-23 19:11 52.87109 6.40170 17762 ft 414 kts 231°
2026-04-23 19:11 52.85255 6.36538 17113 ft 410 kts 231°
2026-04-23 19:11 52.83461 6.32896 16487 ft 406 kts 234°
2026-04-23 19:11 52.81828 6.29121 15868 ft 402 kts 237°
2026-04-23 19:12 52.80775 6.26609 15458 ft 399 kts 237°
2026-04-23 19:12 52.78674 6.21589 14631 ft 395 kts 237°
2026-04-23 19:12 52.77117 6.17882 14002 ft 392 kts 237°
2026-04-23 19:12 52.75566 6.14197 13328 ft 389 kts 237°
2026-04-23 19:13 52.74027 6.10548 12688 ft 385 kts 237°
2026-04-23 19:13 52.72501 6.06938 12053 ft 381 kts 237°
2026-04-23 19:13 52.71007 6.03410 11725 ft 369 kts 237°
2026-04-23 19:13 52.69560 6.00003 11471 ft 356 kts 237°
2026-04-23 19:14 52.68165 5.96720 11261 ft 343 kts 237°
2026-04-23 19:14 52.66817 5.93552 11032 ft 331 kts 237°
2026-04-23 19:14 52.65515 5.90494 10810 ft 320 kts 237°
2026-04-23 19:14 52.64256 5.87542 10639 ft 310 kts 237°
2026-04-23 19:15 52.63032 5.84672 10359 ft 304 kts 238°